FW8886 Weather Reports


time (UTC)temp
C
wind
direction
speed
KPH
gust
KPH
rain 1hr
cm
rain 24hr
cm
rain mn
cm
humidity
%
barometer
mb
20260507105026 0 0 0.0 0.0 0.00 0.76 0.00 94 1012.5
20260507104544 0 0 0.0 0.0 0.00 0.76 0.00 94 1012.5
20260507104029 0 0 0.0 1.6 0.00 0.76 0.00 94 1012.4
20260507103526 0 0 0.0 1.6 0.00 0.76 0.00 94 1012.4
20260507103042 0 0 0.0 0.0 0.00 0.76 0.00 94 1012.3
20260507102530 0 0 0.0 0.0 0.00 0.76 0.00 94 1012.3
20260507102028 0 0 0.0 0.0 0.00 0.76 0.00 94 1012.2
20260507101601 0 0 0.0 1.6 0.00 0.76 0.00 94 1012.3
20260507101026 0 0 0.0 1.6 0.00 0.76 0.00 94 1012.1
20260507100526 0 238 0.0 1.6 0.00 0.76 0.00 94 1012.1
20260507100048 0 0 0.0 1.6 0.00 0.76 0.00 93 1012.2
20260507095532 0 0 0.0 1.6 0.00 0.91 0.00 93 1012.1
20260507095029 0 0 0.0 0.0 0.00 0.91 0.00 94 1012.0
20260507094556 0 0 0.0 0.0 0.00 0.91 0.00 94 1012.1
20260507094028 0 0 0.0 1.6 0.00 0.91 0.00 93 1012.0
20260507093526 0 0 0.0 1.6 0.00 0.91 0.00 93 1012.0
20260507093046 0 0 0.0 1.6 0.00 0.91 0.00 93 1012.0
20260507092532 0 238 0.0 1.6 0.00 0.91 0.00 93 1012.0
20260507092026 0 0 0.0 1.6 0.00 0.91 0.00 93 1012.1
20260507091555 1 0 0.0 1.6 0.00 0.91 0.00 93 1012.1
20260507091026 1 0 0.0 1.6 0.00 0.91 0.00 93 1012.2
20260507090525 1 0 0.0 1.6 0.00 0.91 0.00 93 1012.2
20260507085529 1 0 0.0 1.6 0.00 0.97 0.00 93 1012.3
20260507085026 1 0 0.0 1.6 0.00 0.97 0.00 93 1012.4
20260507084541 1 0 0.0 1.6 0.00 0.97 0.00 93 1012.3
20260507084030 1 0 0.0 1.6 0.00 0.97 0.00 93 1012.3
20260507083529 1 0 0.0 1.6 0.00 0.97 0.00 94 1012.4
20260507083048 1 0 0.0 1.6 0.00 0.97 0.00 93 1012.3
20260507082527 1 0 0.0 0.0 0.00 0.97 0.00 93 1012.4
20260507082026 1 0 0.0 3.2 0.00 0.97 0.00 93 1012.5
20260507081554 1 0 0.0 3.2 0.00 0.97 0.00 93 1012.4
20260507081026 1 0 0.0 3.2 0.00 0.97 0.00 93 1012.4
20260507080527 1 244 0.0 1.6 0.00 0.97 0.00 93 1012.4
20260507080044 1 244 0.0 1.6 0.00 0.97 0.00 92 1012.3
20260507075528 1 0 0.0 1.6 0.00 1.02 0.00 92 1012.4
20260507075026 1 0 0.0 1.6 0.00 1.02 0.00 92 1012.5
20260507074544 1 0 0.0 1.6 0.00 1.02 0.00 92 1012.4
20260507074027 2 0 0.0 0.0 0.00 1.02 0.00 92 1012.4
20260507073528 2 0 0.0 1.6 0.00 1.02 0.00 91 1012.4
20260507073056 2 0 0.0 1.6 0.00 1.02 0.00 91 1012.4
20260507072526 2 0 0.0 0.0 0.00 1.02 0.00 91 1012.4
20260507072028 2 0 0.0 0.0 0.00 1.02 0.00 92 1012.5
20260507071543 3 0 0.0 0.0 0.00 1.02 0.00 92 1012.3
20260507071029 3 0 0.0 1.6 0.00 1.02 0.00 92 1012.3
20260507070529 3 0 0.0 1.6 0.00 1.02 0.00 92 1012.3
20260507070110 3 0 0.0 1.6 0.00 1.02 0.00 92 1012.2
20260507065528 3 0 0.0 1.6 0.00 1.02 0.00 92 1012.3
20260507065029 3 0 0.0 0.0 0.00 1.02 0.00 92 1012.4
20260507064543 3 0 0.0 0.0 0.00 1.02 0.00 93 1012.5
20260507064029 3 0 0.0 0.0 0.00 1.02 0.00 93 1012.5
20260507063529 3 0 0.0 0.0 0.00 1.02 0.00 93 1012.5
20260507063047 3 0 0.0 0.0 0.00 1.02 0.00 93 1012.6
20260507062526 3 0 0.0 0.0 0.00 1.02 0.00 93 1012.7
20260507062026 3 0 0.0 0.0 0.00 1.02 0.00 93 1012.8
20260507061547 3 0 0.0 0.0 0.00 1.02 0.00 92 1012.6
20260507061026 3 0 0.0 0.0 0.00 1.02 0.00 92 1012.7
20260507060528 3 0 0.0 1.6 0.00 1.02 0.00 92 1012.6
20260507060047 3 0 0.0 1.6 0.00 1.02 0.00 92 1012.5
20260507055526 3 0 0.0 1.6 0.00 1.02 0.00 92 1012.7
20260507055029 3 0 0.0 1.6 0.00 1.02 0.00 92 1012.5
20260507054550 3 0 0.0 3.2 0.00 1.02 0.00 92 1012.7
20260507054028 3 0 0.0 3.2 0.00 1.02 0.00 92 1013.0
20260507053526 3 226 0.0 3.2 0.00 1.02 0.00 92 1012.9
20260507053044 3 0 0.0 1.6 0.00 1.02 0.00 92 1012.7
20260507052529 3 0 0.0 1.6 0.00 1.02 0.00 92 1012.6
20260507052028 3 0 0.0 1.6 0.00 1.02 0.00 92 1012.4
20260507051539 4 0 0.0 6.4 0.00 1.02 0.00 92 1012.3
20260507051028 4 0 0.0 6.4 0.00 1.02 0.00 92 1012.3
20260507050528 4 0 0.0 6.4 0.00 1.02 0.00 92 1012.4
20260507050048 4 0 0.0 6.4 0.00 1.02 0.00 92 1012.7
20260507045533 4 290 0.0 4.8 0.00 1.02 0.00 93 1012.9
20260507045032 5 0 0.0 6.4 0.00 1.02 0.00 93 1012.8
20260507044549 5 0 0.0 6.4 0.00 1.02 0.00 93 1012.9
20260507044028 5 286 1.6 11.3 0.00 1.02 0.00 93 1012.9
20260507043528 5 283 0.0 11.3 0.00 1.02 0.00 94 1012.8
20260507043043 5 0 1.6 11.3 0.00 1.02 0.00 93 1012.7
20260507042528 5 282 0.0 4.8 0.00 1.02 0.00 94 1012.7
20260507042028 5 0 0.0 4.8 0.00 1.02 0.00 94 1012.6
20260507041542 6 229 0.0 4.8 0.00 1.02 0.00 94 1012.8
20260507041029 6 242 0.0 4.8 0.00 1.02 0.00 95 1012.6
20260507040528 6 0 0.0 3.2 0.00 1.02 0.00 95 1012.4
20260507040041 6 0 0.0 3.2 0.00 1.02 0.00 95 1012.3
20260507035529 6 0 0.0 1.6 0.00 1.02 1.02 95 1012.6
20260507035029 6 0 0.0 3.2 0.00 1.02 1.02 95 1012.3
20260507034538 6 0 0.0 3.2 0.00 1.02 1.02 95 1012.0
20260507034029 6 0 0.0 0.0 0.00 1.02 1.02 94 1012.1
20260507033528 6 0 0.0 0.0 0.00 1.02 1.02 95 1012.3
20260507033047 6 0 0.0 1.6 0.00 1.02 1.02 95 1012.3
20260507032528 6 0 0.0 1.6 0.00 1.02 1.02 94 1012.1
20260507032026 6 0 0.0 1.6 0.00 1.02 1.02 94 1012.1
20260507031544 6 0 0.0 3.2 0.00 1.02 1.02 95 1012.0
20260507031029 6 0 0.0 3.2 0.00 1.02 1.02 95 1012.0
20260507030527 6 188 0.0 3.2 0.00 1.02 1.02 95 1012.0
20260507030043 6 0 0.0 3.2 0.00 1.02 1.02 95 1011.6
20260507025528 6 188 0.0 3.2 0.00 1.02 1.02 95 1011.5
20260507025030 6 0 0.0 3.2 0.00 1.02 1.02 95 1012.0
20260507024538 6 0 0.0 3.2 0.00 1.02 1.02 95 1012.1
20260507024029 6 0 0.0 3.2 0.00 1.02 1.02 95 1011.9
20260507023531 6 0 0.0 3.2 0.00 1.02 1.02 95 1012.0
20260507023048 6 0 0.0 1.6 0.00 1.02 1.02 95 1011.9
20260507022530 6 0 0.0 1.6 0.00 1.02 1.02 94 1011.9
20260507022028 6 0 0.0 1.6 0.00 1.02 1.02 94 1012.1
20260507021602 6 0 0.0 1.6 0.00 1.02 1.02 95 1012.1
20260507021027 6 0 0.0 0.0 0.00 1.02 1.02 95 1012.0
20260507020528 6 0 0.0 0.0 0.00 1.02 1.02 94 1012.3
20260507020048 6 0 0.0 0.0 0.00 1.02 1.02 94 1012.3
20260507015525 6 0 0.0 0.0 0.00 1.02 1.02 94 1012.3
20260507015028 6 0 0.0 0.0 0.00 1.02 1.02 94 1012.0
20260507014552 6 0 0.0 3.2 0.00 1.02 1.02 94 1012.3
20260507014028 6 0 0.0 3.2 0.00 1.02 1.02 94 1012.1
20260507013528 6 330 0.0 3.2 0.00 1.02 1.02 94 1012.0
20260507013053 6 0 0.0 3.2 0.00 1.02 1.02 94 1012.1
20260507012529 6 0 0.0 3.2 0.00 1.02 1.02 94 1012.5
20260507012031 6 0 0.0 1.6 0.00 1.02 1.02 94 1012.0
20260507011548 6 352 0.0 1.6 0.00 1.02 1.02 94 1012.0
20260507011027 6 0 0.0 1.6 0.00 1.02 1.02 94 1012.3
20260507010529 6 0 0.0 1.6 0.00 1.02 1.02 94 1012.0
20260507010100 7 0 0.0 3.2 0.00 1.02 1.02 94 1012.4
20260507005833 7 0 0.0 3.2 0.00 1.02 1.02 93 1012.2
20260507000048 7 0 0.0 1.6 0.03 1.02 1.02 93 1011.2
20260506235528 7 0 0.0 1.6 0.03 1.02 1.02 93 1011.2
20260506235027 7 0 0.0 3.2 0.03 1.02 1.02 93 1011.2
20260506234548 7 0 0.0 3.2 0.03 1.02 1.02 93 1011.2
20260506234027 7 0 0.0 3.2 0.03 1.02 1.02 93 1011.2
20260506233528 7 0 0.0 3.2 0.03 1.02 1.02 93 1011.2
20260506233049 7 352 0.0 4.8 0.00 0.99 0.99 93 1011.2
20260506232528 7 0 0.0 4.8 0.00 0.99 0.99 93 1011.2
20260506232027 7 0 0.0 4.8 0.00 0.99 0.99 93 1011.1
20260506231546 8 0 0.0 4.8 0.00 0.99 0.99 93 1011.0
20260506231030 8 0 0.0 1.6 0.00 0.99 0.99 93 1010.7
20260506230528 8 0 0.0 1.6 0.00 0.99 0.99 93 1011.0
20260506230044 8 0 0.0 1.6 0.00 0.99 0.99 93 1011.0
20260506225530 8 0 0.0 1.6 0.00 0.99 0.99 93 1010.9
20260506225029 8 0 0.0 1.6 0.00 0.99 0.99 93 1011.0
20260506224542 8 0 0.0 0.0 0.00 0.99 0.99 93 1010.9
20260506224028 8 0 0.0 0.0 0.00 0.99 0.99 92 1010.8
20260506223527 8 0 0.0 0.0 0.00 0.99 0.99 92 1010.6
20260506223047 8 0 0.0 3.2 0.00 0.99 0.99 92 1010.7
20260506222529 8 0 0.0 3.2 0.00 0.99 0.99 92 1010.9
20260506222029 8 0 0.0 0.0 0.00 0.99 0.99 92 1010.7
20260506221548 8 0 0.0 0.0 0.00 0.99 0.99 92 1010.6
20260506221028 8 0 0.0 1.6 0.00 0.99 0.99 92 1010.5
20260506220528 8 0 0.0 1.6 0.00 0.99 0.99 92 1010.6
20260506220051 8 0 0.0 4.8 0.00 0.99 0.99 92 1010.7
20260506215528 8 0 0.0 4.8 0.00 0.99 0.99 92 1010.5
20260506215028 8 234 1.6 4.8 0.00 0.99 0.99 92 1010.4
20260506214547 8 0 0.0 4.8 0.00 0.99 0.99 92 1010.3
20260506214029 8 290 0.0 4.8 0.00 0.99 0.99 92 1010.4
20260506213528 8 0 0.0 3.2 0.00 0.99 0.99 92 1010.2
20260506213042 8 0 0.0 6.4 0.00 0.99 0.99 92 1010.3
20260506212528 8 0 0.0 6.4 0.00 0.99 0.99 92 1010.1
20260506212028 8 355 1.6 4.8 0.00 0.99 0.99 92 1010.0
20260506211541 8 0 0.0 4.8 0.00 0.99 0.99 92 1009.9
20260506211028 8 338 0.0 6.4 0.00 0.99 0.99 92 1009.9
20260506210529 8 217 0.0 6.4 0.00 0.99 0.99 93 1009.9
20260506210044 8 325 0.0 4.8 0.00 0.99 0.99 92 1009.8
20260506205527 8 308 0.0 4.8 0.00 1.07 0.99 93 1010.0
20260506205027 8 298 1.6 4.8 0.00 1.07 0.99 92 1009.9
20260506204541 8 0 0.0 4.8 0.00 1.07 0.99 93 1009.7
20260506204029 8 0 1.6 6.4 0.00 1.07 0.99 92 1009.9
20260506203528 8 0 1.6 6.4 0.00 1.07 0.99 92 1009.8
20260506203051 8 0 0.0 3.2 0.00 1.07 0.99 92 1009.8
20260506202529 8 0 0.0 6.4 0.00 1.07 0.99 93 1009.7
20260506202029 8 0 0.0 6.4 0.00 1.07 0.99 92 1009.6
20260506201606 8 40 1.6 8.0 0.00 1.07 0.99 92 1009.6
20260506201028 8 0 0.0 8.0 0.00 1.07 0.99 93 1009.5
20260506200528 8 324 0.0 11.3 0.00 1.07 0.99 93 1009.2
20260506200040 8 159 1.6 11.3 0.00 1.07 0.99 93 1009.3
20260506195528 8 344 1.6 11.3 0.00 1.07 0.99 93 1009.4
20260506195031 8 183 1.6 6.4 0.00 1.07 0.99 93 1009.4
20260506194549 8 329 1.6 8.0 0.00 1.07 0.99 93 1009.4
20260506194027 8 0 1.6 8.0 0.00 1.07 0.99 93 1009.4
20260506193527 8 0 0.0 6.4 0.00 1.07 0.99 93 1009.2
20260506193043 8 0 0.0 6.4 0.00 1.07 0.99 93 1009.2
20260506192527 8 355 1.6 8.0 0.00 1.07 0.99 94 1009.1
20260506192027 8 296 0.0 8.0 0.00 1.07 0.99 94 1009.0
20260506191547 8 5 0.0 6.4 0.00 1.07 0.99 94 1008.9
20260506191027 8 0 1.6 6.4 0.00 1.07 0.99 94 1008.9
20260506190528 8 0 0.0 11.3 0.00 1.07 0.99 94 1009.0
20260506190047 8 273 0.0 11.3 0.00 1.07 0.99 94 1009.0
20260506185528 8 259 1.6 11.3 0.00 1.19 0.99 94 1009.0
20260506185027 8 0 1.6 8.0 0.03 1.19 0.99 94 1008.8
20260506184551 7 273 0.0 6.4 0.03 1.19 0.99 94 1009.1
20260506184029 7 234 1.6 6.4 0.03 1.19 0.99 94 1009.1
20260506183527 7 0 1.6 9.7 0.03 1.19 0.99 94 1009.0
20260506183041 7 266 1.6 9.7 0.03 1.19 0.99 93 1008.8
20260506182526 7 272 1.6 14.5 0.03 1.19 0.99 93 1008.8
20260506182030 7 251 1.6 14.5 0.03 1.19 0.99 93 1008.9
20260506181549 7 234 3.2 14.5 0.05 1.19 0.99 93 1008.8
20260506181030 7 284 1.6 9.7 0.05 1.19 0.99 93 1008.7
20260506180528 7 246 1.6 12.9 0.05 1.19 0.99 93 1008.6
20260506180049 7 0 1.6 12.9 0.05 1.19 0.99 93 1008.5
20260506175530 7 247 3.2 12.9 0.08 1.19 0.99 93 1008.6
20260506175031 7 0 1.6 11.3 0.05 1.17 0.97 93 1008.4
20260506174545 7 250 1.6 11.3 0.08 1.17 0.97 93 1008.4
20260506174030 7 0 1.6 4.8 0.10 1.17 0.97 93 1008.2
20260506173529 7 0 0.0 3.2 0.13 1.17 0.97 92 1008.0
20260506173105 7 0 0.0 4.8 0.13 1.17 0.97 92 1008.0
20260506172527 7 5 0.0 4.8 0.13 1.17 0.97 91 1008.1
20260506172031 7 41 1.6 4.8 0.13 1.17 0.97 91 1007.9
20260506171553 7 99 0.0 3.2 0.10 1.14 0.94 91 1008.0
20260506171027 7 99 0.0 12.9 0.10 1.14 0.94 90 1007.9
20260506170527 7 258 1.6 12.9 0.10 1.14 0.94 90 1008.1
20260506170044 8 292 1.6 8.0 0.10 1.14 0.94 90 1008.1
20260506165531 8 251 1.6 11.3 0.08 1.12 0.91 89 1008.1
20260506165030 8 242 3.2 11.3 0.08 1.12 0.91 88 1007.9
20260506164547 8 232 1.6 4.8 0.05 1.09 0.89 88 1008.0
20260506164028 9 0 1.6 4.8 0.03 1.07 0.86 87 1007.7
20260506163530 9 0 1.6 4.8 0.00 1.04 0.84 87 1007.7
20260506163059 10 0 0.0 8.0 0.00 1.04 0.84 86 1007.7
20260506162527 10 0 0.0 8.0 0.00 1.04 0.84 86 1007.6
20260506162030 11 324 1.6 12.9 0.00 1.04 0.84 86 1007.6
20260506161548 11 0 3.2 14.5 0.00 1.04 0.84 87 1007.3
20260506161027 12 264 0.0 14.5 0.00 1.04 0.84 89 1007.3
20260506160532 13 28 4.8 14.5 0.00 1.04 0.84 91 1007.1
20260506160046 13 225 1.6 9.7 0.00 1.04 0.84 93 1006.9
20260506155529 13 213 1.6 9.7 0.00 1.04 0.84 93 1006.8
20260506155029 13 192 3.2 9.7 0.00 1.04 0.84 93 1006.7
20260506154555 13 214 3.2 9.7 0.00 1.04 0.84 93 1006.7
20260506154029 13 133 3.2 12.9 0.00 1.04 0.84 93 1006.6
20260506153526 13 0 3.2 12.9 0.00 1.04 0.84 93 1006.4
20260506153048 13 161 4.8 12.9 0.00 1.04 0.84 93 1006.4
20260506152530 13 171 3.2 12.9 0.00 1.04 0.84 93 1006.5
20260506152029 13 190 3.2 12.9 0.00 1.04 0.84 93 1006.4
20260506151541 12 144 4.8 14.5 0.00 1.04 0.84 93 1006.5
20260506151026 12 185 1.6 14.5 0.00 1.04 0.84 93 1006.5
20260506150527 12 214 4.8 12.9 0.00 1.04 0.84 93 1006.6
20260506150048 12 186 3.2 12.9 0.00 1.04 0.84 93 1006.6
20260506145527 12 151 3.2 14.5 0.00 1.04 0.84 93 1006.6
20260506145029 12 156 3.2 14.5 0.03 1.04 0.84 93 1006.7
20260506144548 12 143 4.8 14.5 0.03 1.04 0.84 93 1006.7
20260506144026 12 132 3.2 11.3 0.03 1.04 0.84 93 1006.8
20260506143528 12 148 3.2 16.1 0.03 1.04 0.84 93 1006.8
20260506143045 12 140 6.4 16.1 0.05 1.04 0.84 93 1006.7
20260506142528 12 165 6.4 16.1 0.05 1.04 0.84 93 1006.4
20260506142027 12 173 6.4 19.3 0.08 1.04 0.84 93 1006.4
20260506141549 12 209 8.0 19.3 0.10 1.04 0.84 93 1006.2
20260506141027 12 178 4.8 12.9 0.10 1.04 0.84 93 1006.5
20260506140530 12 182 4.8 14.5 0.13 1.04 0.84 94 1006.4
20260506140052 12 162 4.8 14.5 0.15 1.04 0.84 94 1006.2
20260506135526 12 131 4.8 14.5 0.13 1.02 0.81 94 1006.1
20260506135029 12 88 4.8 12.9 0.15 1.02 0.81 94 1006.2
20260506134541 12 135 3.2 11.3 0.18 1.02 0.81 94 1006.4
20260506134031 12 229 1.6 11.3 0.20 1.02 0.81 94 1006.6
20260506133528 12 155 3.2 11.3 0.20 0.99 0.79 94 1006.6
20260506133045 12 174 4.8 11.3 0.20 0.99 0.79 94 1006.5
20260506132527 12 140 1.6 8.0 0.23 0.99 0.79 94 1006.5
20260506132026 12 158 1.6 8.0 0.23 0.97 0.76 94 1006.6
20260506131544 12 175 1.6 8.0 0.23 0.94 0.74 94 1006.6
20260506131028 12 208 3.2 8.0 0.25 0.94 0.74 93 1006.7
20260506130529 12 115 3.2 8.0 0.23 0.91 0.71 94 1006.7
20260506130052 12 133 3.2 11.3 0.20 0.89 0.69 94 1006.7
20260506125527 12 157 3.2 11.3 0.23 0.89 0.69 93 1006.6
20260506125027 12 118 3.2 16.1 0.20 0.86 0.66 93 1006.5
20260506124545 12 140 3.2 17.7 0.20 0.84 0.64 93 1006.9
20260506124028 12 195 8.0 17.7 0.18 0.81 0.61 93 1006.9
20260506123527 12 163 4.8 19.3 0.18 0.79 0.58 93 1007.0
20260506123042 12 175 6.4 19.3 0.15 0.76 0.56 93 1007.0
20260506122527 12 170 6.4 17.7 0.18 0.76 0.56 93 1007.0
20260506122026 12 165 6.4 17.7 0.15 0.74 0.53 93 1007.3
20260506121541 12 115 4.8 16.1 0.15 0.71 0.51 93 1007.3
20260506121028 12 207 4.8 16.1 0.13 0.69 0.48 93 1007.3
20260506120528 12 140 4.8 14.5 0.15 0.69 0.48 93 1007.3
20260506120037 12 186 4.8 16.1 0.15 0.69 0.48 93 1007.2
20260506115528 12 145 4.8 16.1 0.15 0.66 0.46 92 1006.9
20260506115027 12 156 8.0 19.3 0.15 0.66 0.46 92 1006.8
20260506114558 12 174 3.2 19.3 0.13 0.64 0.43 92 1006.7
20260506114027 12 172 6.4 19.3 0.15 0.64 0.43 93 1006.8
20260506113526 12 136 8.0 19.3 0.13 0.61 0.41 93 1006.7
20260506113046 12 137 6.4 16.1 0.13 0.61 0.41 93 1006.6
20260506112528 12 124 8.0 16.1 0.13 0.58 0.38 93 1006.5
20260506112027 12 142 6.4 12.9 0.13 0.58 0.38 93 1006.6
20260506111546 12 179 4.8 16.1 0.10 0.56 0.36 92 1006.6
20260506111026 12 128 4.8 16.1 0.10 0.56 0.36 93 1006.5
20260506110527 12 150 6.4 16.1 0.08 0.53 0.33 92 1006.6
20260506110042 12 0 4.8 16.1 0.08 0.53 0.33 92 1006.6
20260506105528 12 173 6.4 16.1 0.05 0.51 0.30 92 1006.7